Location: ??????
(41.3747°N, 22.5491°E)
Time: 15:12:32
(UTC+00:00)

Cosmos 158 Rocket - Pass Details

Date: 01 December 2020
Orbit: 698 x 793 km, 74.0° (Epoch: 20 January)

Event Time Altitude Azimuth Distance (km) Brightness Sun altitude
Rises 17:12:03 0° 207° (SSW) 3,129 7.7 -24.0°
Reaches altitude 10° 17:14:25 10° 211° (SSW) 2,199 6.9 -24.4°
Maximum altitude 17:19:19 61° 291° (WNW) 807 4.2 -25.3°
Enters shadow 17:21:03 38° 355° (N) 1,084 4.7 -25.7°
